Hourly Data Report for February 01, 2001

SHERBROOKE A
QUEBEC

45°26'00.000" N
71°41'00.000" W
241.40 m
7028124
71610
YSC

Download Data

Hourly Data (February 2001)
Hourly Data Report for February 1, 2001
TIME
LST
Temp Definition
°C
Dew Point Definition
°C
Rel Hum Definition
%
Precip. Amount Definition
mm

Wind Dir Definition
10's deg

Wind Spd Definition
km/h
Visibility Definition
km
Stn Press Definition
kPa
Hmdx Definition


Wind Chill Definition


Weather Definition


00:00 -7.3 -9.8 82   27 7 15.0 97.69   -11 Snow
01:00 -7.9 -10.3 83   26 7 15.0 97.79   -12 Snow
02:00 -8.2 -10.5 83   28 9 15.0 97.86   -13 Snow
03:00 -8.5 -10.6 85     0 3.1 97.86     Snow
04:00 -8.9 -11.0 85   28 6 9.7 97.92   -12 Snow
05:00 -9.2 -11.2 85   30 4 12.9 97.92   -11 Snow
06:00 -8.8 -10.9 85     0 12.9 97.96     Snow
07:00 -8.7 -10.9 84     0 12.9 98.09     Snow
08:00 -8.6 -10.9 83   29 6 4.8 98.22   -12 Snow
09:00 -8.5 -10.7 84   29 6 2.4 98.32   -12 Snow
10:00 -8.1 -10.5 83   28 7 6.4 98.39   -12 Snow
11:00 -7.4 -10.1 81   27 9 6.4 98.45   -12 Snow
12:00 -7.1 -9.9 80   30 6 6.4 98.49   -10 Snow
13:00 -6.6 -9.2 82   27 7 9.7 98.49   -10 Snow
14:00 -5.9 -8.6 81   27 7 9.7 98.55   -9 Snow
15:00 -5.7 -8.2 82   27 6 8.0 98.65   -9 Snow
16:00 -5.3 -7.8 83   26 11 9.7 98.72   -10 Snow
17:00 -5.5 -8.1 82   25 11 8.0 98.85   -10 Snow
18:00 -6.2 -8.7 82   23 9 4.8 98.92   -10 Snow
19:00 -6.8 -9.2 83   24 7 8.0 98.95   -10 Snow
20:00 -6.8 -9.0 84   19 4 15.0 98.95   -9  
21:00 -6.8 -9.0 84   18 4 4.8 98.98   -9 Snow
22:00 -6.7 -8.7 86   20 6 2.7 99.02   -10 Snow
23:00 -6.0 -8.3 84   21 6 6.4 99.02   -9 Snow

Notes on Data Quality.

Legend

  • E = Estimated
  • M = Missing
  • NA = Not Available*
  • [empty] = Indicates an unobserved value
Date modified: